[[{"header":{"parameterUnit":"m.s-1","parameterCategory":1,"la1":30.2991,"la2":30.254,"lo1":-89.0895,"lo2":-89.0444,"dy":0.0017,"dx":0.0017,"nx":28,"ny":28,"refTime":"2023-09-29T09:00:00:Z","depth":0,"parameterNumber":2,"parameterNumberName":"U-component_of_WINDS"},"data":[0,0,0,0,0,0,0,0,0,0,0,0,0,0,0,0,0,0,0,0,0,0,0,0,0,0,0,0,0,0,0,0,0,0,0,0,0,0,0,0,0,0,0,0,0,0,0,0,0,0,0,0,0,0,0,0,0,0,-3.1218,-3.1218,0,-3.1252,-3.1252,-3.1253,-3.1141,-3.1138,-3.1134,-3.1131,-3.117,-3.1174,-3.1178,0,0,0,0,0,0,0,0,0,0,0,0,0,-3.1058,-3.1061,-3.1217,-3.1218,-3.1218,-3.1252,-3.1252,-3.1253,-3.1142,-3.1137,-3.1133,-3.1129,-3.1168,-3.1173,-3.1178,0,0,0,0,0,0,0,0,0,0,0,0,0,-3.1113,-3.1062,-3.1217,-3.1167,-3.1163,-3.1252,-3.1252,-3.1253,-3.1143,-3.1137,-3.1132,-3.1128,-3.1167,-3.1173,-3.1179,-3.132,0,0,-3.1198,-3.1201,0,0,0,0,0,0,0,0,-3.111,-3.1119,-3.1174,-3.117,-3.1166,-3.1187,-3.121,-3.1276,-3.1144,-3.115,-3.1131,-3.1125,-3.118,-3.1185,-3.1202,-3.1322,-3.1323,-3.1199,-3.1203,-3.1205,-3.1207,0,0,0,0,0,0,0,-3.1107,-3.1117,-3.1231,-3.1175,-3.117,-3.1143,-3.1145,-3.1222,-3.1193,-3.1149,-3.1141,-3.1147,-3.1177,-3.1197,-3.1203,-3.1324,-3.1199,-3.1204,-3.1208,-3.1211,-3.156,-3.1565,0,0,0,0,0,0,-3.1109,-3.1115,-3.123,-3.1232,-3.1125,-3.115,-3.1153,-3.1185,-3.1192,-3.1188,-3.1151,-3.1141,-3.1188,-3.1195,-3.1203,-3.1368,-3.1205,-3.1211,-3.1215,-3.1555,-3.1561,-3.1567,0,0,0,0,0,0,-3.1106,-3.112,-3.1229,-3.1171,-3.1183,-3.1158,-3.1196,-3.1189,-3.1208,-3.1193,-3.1188,-3.1177,-3.1185,-3.1195,-3.1291,-3.1368,-3.1214,-3.122,-3.1548,-3.1557,-3.1564,-3.17,0,0,0,0,0,0,-3.1102,-3.112,-3.1172,-3.1173,-3.1187,-3.1316,-3.1201,-3.1193,-3.1219,-3.1207,-3.1216,-3.1213,-3.1181,-3.1283,-3.1298,-3.1374,-3.1225,-3.1541,-3.1552,-3.1562,-3.1689,-3.1712,-3.1732,0,0,0,0,0,-3.1096,-3.121,-3.1176,-3.119,-3.1252,-3.132,-3.1328,-3.1289,-3.1226,-3.1279,-3.1269,-3.1212,-3.1358,-3.1294,-3.131,-3.1389,-3.1536,-3.1549,-3.1561,-3.1679,-3.1707,-3.1731,0,0,0,0,0,0,-3.122,-3.1209,-3.1171,-3.1288,-3.1306,-3.1301,-3.1367,-3.132,-3.1357,-3.1344,-3.1295,-3.1298,-3.1404,-3.1406,-3.1335,-3.1526,-3.1436,-3.1452,-3.152,-3.1547,-3.1568,-3.1566,-3.123,0,0,0,0,0,-3.1261,-3.1316,-3.1304,-3.1409,-3.142,-3.1392,-3.1421,-3.1389,-3.1406,-3.1413,-3.141,-3.143,-3.1479,-3.1513,-3.1558,-3.1688,-3.1689,-3.1751,-3.1773,-3.179,-3.1805,-3.1874,-3.1902,-3.1608,-3.1608,-3.1608,0,0,-3.1346,-3.1347,-3.1385,-3.1434,-3.1444,-3.1503,-3.1399,-3.1467,-3.1511,-3.1424,-3.1514,-3.1513,-3.1532,-3.1646,-3.1696,-3.1651,-3.1886,-3.1806,-3.1821,-3.1826,-3.189,-3.1917,-3.1942,-3.1617,-3.1615,-3.1614,0,0,-3.1531,-3.1537,-3.1625,-3.1637,-3.1653,-3.1634,-3.1655,-3.1657,-3.1653,-3.1743,-3.1679,-3.1731,-3.1818,-3.1834,-3.1853,-3.2045,-3.1994,-3.2061,-3.2174,-3.2242,-3.2265,-3.2285,-3.2353,-3.2378,-3.2075,-3.2076,-3.2076,0,-3.1635,-3.1721,-3.1676,-3.1748,-3.1771,-3.1694,-3.1782,-3.1797,-3.1828,-3.1846,-3.1795,-3.1902,-3.1909,-3.2025,-3.2072,-3.2091,-3.2114,-3.2059,-3.2265,-3.2285,-3.2303,-3.2368,-3.2394,-3.2084,-3.2083,-3.2082,-3.2081,0,-3.1848,-3.1909,-3.1977,-3.2008,-3.2039,-3.2119,-3.2087,-3.2124,-3.209,-3.2077,-3.217,-3.2176,-3.2221,-3.2246,-3.2214,-3.2358,-3.233,-3.2273,-3.2182,-3.234,-3.24,-3.2424,-3.2095,-3.2092,-3.209,-3.2088,0,0,-3.2111,-3.2115,-3.2142,-3.2154,-3.2166,-3.2213,-3.229,-3.2333,-3.2366,-3.239,-3.2453,-3.2529,-3.2476,-3.2498,-3.2467,-3.2526,-3.2678,-3.2462,-3.2461,-3.2502,-3.2838,-3.288,-3.291,-3.2644,-3.2648,-3.2652,-3.2836,0,-3.2293,-3.2423,-3.2385,-3.2516,-3.2572,-3.25,-3.2567,-3.2582,-3.2572,-3.2619,-3.2607,-3.2662,-3.2588,-3.2601,-3.2656,-3.2648,-3.2744,-3.2634,-3.2703,-3.2706,-3.2701,-3.2941,-3.2986,-3.316,-3.2859,-3.2863,-3.2866,0,-3.2522,-3.2554,-3.2691,-3.2693,-3.2715,-3.2776,-3.2812,-3.2857,-3.2874,-3.2862,-3.2887,-3.2844,-3.292,-3.2829,-3.2934,-3.286,-3.2886,-3.2886,-3.2892,-3.2897,-3.2796,-3.2952,-3.3214,-3.324,-3.2902,-3.2899,-3.2897,0,-3.2701,-3.2778,-3.2869,-3.2883,-3.2888,-3.2932,-3.2937,-3.2948,-3.2976,-3.3008,-3.3026,-3.3067,-3.309,-3.3123,-3.3093,-3.3029,-3.3203,-3.3109,-3.3196,-3.3197,-3.3236,-3.3234,-3.3505,-3.3254,-3.3253,-3.3253,-3.3252,0,-3.2908,-3.2994,-3.2949,-3.3006,-3.3101,-3.3056,-3.3152,-3.3148,-3.3159,-3.3214,-3.3155,-3.3208,-3.3164,-3.3214,-3.3191,-3.3281,-3.3292,-3.3286,-3.3279,-3.3291,-3.3292,-3.3307,-3.3295,-3.326,-3.3258,-3.3257,-3.3256,0,-3.3123,-3.3097,-3.3191,-3.3188,-3.319,-3.326,-3.3258,-3.331,-3.3296,-3.3366,-3.338,-3.3358,-3.3414,-3.3386,-3.3445,-3.3429,-3.3546,-3.3523,-3.354,-3.3534,-3.3623,-3.3615,-3.3913,-3.395,-3.3675,-3.3678,-3.368,0,-3.3257,-3.3321,-3.3325,-3.3357,-3.3365,-3.3418,-3.3446,-3.3405,-3.3437,-3.346,-3.3511,-3.3561,-3.3598,-3.3691,-3.368,-3.3725,-3.3702,-3.3804,-3.3708,-3.3719,-3.3704,-3.37,-3.3707,-3.3823,-3.3826,-3.3829,-3.3831,0,-3.3496,-3.348,-3.3522,-3.356,-3.3595,-3.3624,-3.3647,-3.3677,-3.3637,-3.3676,-3.3731,-3.3761,-3.382,-3.3871,-3.3909,-3.3915,-3.3867,-3.3861,-3.3883,-3.3897,-3.3904,-3.3901,-3.3592,-3.3854,-3.3852,-3.385,-3.3849,-3.3848,-3.3675,-3.3728,-3.3739,-3.3789,-3.3802,-3.3825,-3.3874,-3.3865,-3.391,-3.3954,-3.3928,-3.3993,-3.4008,-3.4055,-3.4067,-3.4118,-3.4078,-3.411,-3.4118,-3.4127,-3.4139,-3.3896,-3.4125,-3.4124,-3.4124,-3.4123,-3.4122,0,-3.3911,-3.3914,-3.396,-3.3994,-3.4033,-3.3983,-3.4007,-3.4043,-3.4101,-3.4118,-3.4156,-3.422,-3.4269,-3.4263,-3.4308,-3.435,-3.433,-3.4364,-3.436,-3.4362,-3.4172,-3.4148,-3.438,-3.438,-3.438,-3.4379,-3.4379,-3.4379,-3.4039,-3.4127,-3.4112,-3.4207,-3.421,-3.4272,-3.429,-3.4311,-3.4325,-3.4399,-3.4439,-3.4434,-3.4442,-3.4487,-3.453,-3.4527,-3.4547,-3.4589,-3.4578,-3.4401,-3.4376,-3.4351,-3.4328,-3.4594,-3.4594,-3.4764,-3.4765,-3.4766]},{"header":{"parameterUnit":"m.s-1","parameterCategory":1,"la1":30.2991,"la2":30.254,"lo1":-89.0895,"lo2":-89.0444,"dy":0.0017,"dx":0.0017,"nx":28,"ny":28,"refTime":"2023-09-29T09:00:00:Z","depth":0,"parameterNumber":3,"parameterNumberName":"V-component_of_WINDS"},"data":[0,0,0,0,0,0,0,0,0,0,0,0,0,0,0,0,0,0,0,0,0,0,0,0,0,0,0,0,0,0,0,0,0,0,0,0,0,0,0,0,0,0,0,0,0,0,0,0,0,0,0,0,0,0,0,0,0,0,-0.3322,-0.3323,0,-0.3418,-0.3419,-0.342,-0.3478,-0.3478,-0.3478,-0.3478,-0.3576,-0.3579,-0.3581,0,0,0,0,0,0,0,0,0,0,0,0,0,-0.3184,-0.3187,-0.3322,-0.3323,-0.3324,-0.3418,-0.3419,-0.3421,-0.3478,-0.3478,-0.3478,-0.3478,-0.3576,-0.3578,-0.3581,0,0,0,0,0,0,0,0,0,0,0,0,0,-0.3259,-0.3187,-0.3322,-0.3364,-0.3369,-0.3418,-0.3419,-0.3421,-0.3478,-0.3478,-0.3478,-0.3479,-0.3575,-0.3578,-0.3582,-0.3596,0,0,-0.3592,-0.3594,0,0,0,0,0,0,0,0,-0.3254,-0.3264,-0.3356,-0.3361,-0.3366,-0.3436,-0.3407,-0.348,-0.3477,-0.3436,-0.3478,-0.3479,-0.3529,-0.3537,-0.3554,-0.3601,-0.3605,-0.3593,-0.3595,-0.3596,-0.3597,0,0,0,0,0,0,0,-0.3249,-0.326,-0.336,-0.3358,-0.3364,-0.3377,-0.3388,-0.3421,-0.3479,-0.344,-0.3444,-0.3455,-0.3532,-0.355,-0.3557,-0.3606,-0.3593,-0.3596,-0.3598,-0.3599,-0.3667,-0.3667,0,0,0,0,0,0,-0.3237,-0.3255,-0.3357,-0.3363,-0.331,-0.3379,-0.3392,-0.3414,-0.3479,-0.349,-0.3454,-0.3457,-0.3544,-0.3552,-0.356,-0.3581,-0.3596,-0.36,-0.3602,-0.3668,-0.3667,-0.3667,0,0,0,0,0,0,-0.3234,-0.3246,-0.3353,-0.331,-0.3325,-0.3381,-0.3405,-0.3415,-0.3434,-0.349,-0.3501,-0.3462,-0.3545,-0.3555,-0.3586,-0.3585,-0.3601,-0.3605,-0.3668,-0.3668,-0.3667,-0.3622,0,0,0,0,0,0,-0.323,-0.3245,-0.3252,-0.331,-0.3327,-0.3378,-0.3405,-0.3417,-0.344,-0.3444,-0.3501,-0.351,-0.3546,-0.3581,-0.359,-0.359,-0.3607,-0.3668,-0.3668,-0.3667,-0.3624,-0.362,-0.3617,0,0,0,0,0,-0.3225,-0.3235,-0.3252,-0.3264,-0.3337,-0.3378,-0.3388,-0.3429,-0.3439,-0.3446,-0.3482,-0.3509,-0.3583,-0.3583,-0.3594,-0.3596,-0.3669,-0.3668,-0.3667,-0.3626,-0.3621,-0.3617,0,0,0,0,0,0,-0.3176,-0.3244,-0.3263,-0.3292,-0.3329,-0.3388,-0.3398,-0.3423,-0.3457,-0.346,-0.3508,-0.352,-0.3546,-0.3574,-0.3573,-0.3612,-0.3629,-0.363,-0.3594,-0.359,-0.3586,-0.3579,-0.361,0,0,0,0,0,-0.3168,-0.3196,-0.3254,-0.3275,-0.3292,-0.3341,-0.3361,-0.3389,-0.3429,-0.3445,-0.3483,-0.352,-0.3552,-0.3572,-0.3604,-0.3627,-0.364,-0.3634,-0.363,-0.3627,-0.3628,-0.3641,-0.3638,-0.3664,-0.3664,-0.3664,0,0,-0.3153,-0.3194,-0.3209,-0.3266,-0.3298,-0.3325,-0.3354,-0.3383,-0.3403,-0.3449,-0.3481,-0.3509,-0.3554,-0.3581,-0.3594,-0.3605,-0.3623,-0.3626,-0.3623,-0.3626,-0.364,-0.3637,-0.3635,-0.3664,-0.3664,-0.3664,0,0,-0.314,-0.3174,-0.3194,-0.3225,-0.3272,-0.3304,-0.3309,-0.3363,-0.3384,-0.3417,-0.3451,-0.3475,-0.3529,-0.356,-0.3582,-0.3576,-0.3602,-0.3585,-0.3567,-0.3579,-0.3577,-0.3576,-0.3574,-0.3572,-0.3586,-0.3586,-0.3586,0,-0.3116,-0.316,-0.3202,-0.3227,-0.3251,-0.3292,-0.3312,-0.334,-0.3395,-0.341,-0.342,-0.3487,-0.352,-0.3554,-0.3552,-0.3569,-0.3575,-0.358,-0.3574,-0.3573,-0.3572,-0.3571,-0.357,-0.3583,-0.3584,-0.3584,-0.3584,0,-0.3127,-0.3156,-0.3166,-0.3218,-0.3243,-0.3265,-0.331,-0.3329,-0.3354,-0.3384,-0.3416,-0.3456,-0.3497,-0.3506,-0.3531,-0.3543,-0.3548,-0.3565,-0.3583,-0.3567,-0.3566,-0.3566,-0.358,-0.3581,-0.3582,-0.3582,0,0,-0.3089,-0.3161,-0.3165,-0.3188,-0.3241,-0.3264,-0.3288,-0.3327,-0.3343,-0.3378,-0.3399,-0.3442,-0.3458,-0.3483,-0.3511,-0.3521,-0.3513,-0.3537,-0.3539,-0.3532,-0.3528,-0.3515,-0.3514,-0.3529,-0.353,-0.353,-0.3524,0,-0.3084,-0.313,-0.3166,-0.3198,-0.3224,-0.3262,-0.3283,-0.3317,-0.3345,-0.3371,-0.3402,-0.3432,-0.3451,-0.3466,-0.3478,-0.3512,-0.3513,-0.3513,-0.3549,-0.355,-0.3538,-0.3514,-0.3501,-0.3495,-0.3525,-0.3525,-0.3525,0,-0.3086,-0.3119,-0.3153,-0.3202,-0.3214,-0.3232,-0.327,-0.3295,-0.3333,-0.3353,-0.338,-0.3408,-0.3433,-0.3447,-0.3482,-0.3481,-0.3497,-0.3515,-0.3516,-0.3522,-0.3537,-0.352,-0.3494,-0.3493,-0.3525,-0.3525,-0.3525,0,-0.3055,-0.3108,-0.3135,-0.3153,-0.3211,-0.3222,-0.3247,-0.3286,-0.3306,-0.3339,-0.3353,-0.3388,-0.3407,-0.3433,-0.347,-0.3476,-0.35,-0.3517,-0.3517,-0.3516,-0.3522,-0.3522,-0.3499,-0.3531,-0.3531,-0.3531,-0.3531,0,-0.3047,-0.3066,-0.3121,-0.3138,-0.316,-0.3201,-0.3221,-0.3248,-0.3282,-0.3304,-0.3338,-0.3358,-0.3405,-0.3429,-0.3458,-0.3482,-0.349,-0.3506,-0.3514,-0.3504,-0.3502,-0.3517,-0.3519,-0.3531,-0.3531,-0.3531,-0.3531,0,-0.3017,-0.3055,-0.3086,-0.3137,-0.315,-0.3164,-0.3208,-0.3224,-0.3253,-0.328,-0.3289,-0.3334,-0.3365,-0.3403,-0.3446,-0.3465,-0.3487,-0.3498,-0.3474,-0.3478,-0.3476,-0.3476,-0.3463,-0.3463,-0.3494,-0.3493,-0.3493,0,-0.301,-0.3025,-0.3077,-0.3094,-0.3117,-0.3144,-0.3165,-0.3205,-0.3225,-0.3269,-0.328,-0.3313,-0.3342,-0.3388,-0.3425,-0.3457,-0.347,-0.3463,-0.3475,-0.3464,-0.347,-0.3469,-0.3471,-0.346,-0.346,-0.3459,-0.3459,0,-0.2993,-0.301,-0.3039,-0.3074,-0.3098,-0.3127,-0.3158,-0.3169,-0.3215,-0.3236,-0.3267,-0.3289,-0.3332,-0.3364,-0.3401,-0.3425,-0.3449,-0.3454,-0.3456,-0.3447,-0.3433,-0.3441,-0.3466,-0.3455,-0.3455,-0.3456,-0.3456,-0.3456,-0.2975,-0.299,-0.3028,-0.3059,-0.3086,-0.3113,-0.3131,-0.3161,-0.3188,-0.3226,-0.3248,-0.3278,-0.3314,-0.3366,-0.3389,-0.3412,-0.3422,-0.3424,-0.3425,-0.3425,-0.3422,-0.3427,-0.3419,-0.3419,-0.3419,-0.3419,-0.342,0,-0.2961,-0.2987,-0.3014,-0.3055,-0.3078,-0.3098,-0.3132,-0.315,-0.3177,-0.3208,-0.3235,-0.327,-0.3301,-0.3339,-0.3371,-0.3383,-0.3395,-0.339,-0.3391,-0.3396,-0.3412,-0.3407,-0.338,-0.338,-0.338,-0.338,-0.338,-0.338,-0.2956,-0.2982,-0.3003,-0.3042,-0.3068,-0.3098,-0.3116,-0.314,-0.3166,-0.3203,-0.3229,-0.3253,-0.3286,-0.3321,-0.335,-0.336,-0.3371,-0.3363,-0.3376,-0.3391,-0.3395,-0.3398,-0.3394,-0.3364,-0.3364,-0.3358,-0.3358,-0.3358]}]]